This is the latest recevied weather packets stored in our database for station/object G1OCN-WX. If no packets are shown the sender has not sent any weather packets the latest 1 day(s).
| Time | Temp. | Humidity | Pressure | Rain* | Wind** | Luminosity | Snow |
|---|---|---|---|---|---|---|---|
| 1778042862 | 8.89° C | 84% | 1012.5 hPa | 0.25 mm | 5.36 m/s, 70° | - | - |
| 1778042801 | 8.89° C | 84% | 1012.6 hPa | 0.25 mm | 4.47 m/s, 64° | - | - |
| 1778042742 | 8.89° C | 84% | 1012.5 hPa | 0.25 mm | 4.02 m/s, 66° | - | - |
| 1778042681 | 8.89° C | 84% | 1012.6 hPa | 0.25 mm | 5.81 m/s, 63° | - | - |
| 1778042621 | 8.89° C | 84% | 1012.5 hPa | 0.25 mm | 6.26 m/s, 65° | - | - |
| 1778042561 | 9.44° C | 83% | 1012.5 hPa | 0.25 mm | 5.81 m/s, 67° | - | - |
| 1778042501 | 9.44° C | 83% | 1012.6 hPa | 0.25 mm | 5.81 m/s, 61° | - | - |
| 1778042441 | 9.44° C | 83% | 1012.6 hPa | 0.25 mm | 5.36 m/s, 67° | - | - |
| 1778042381 | 9.44° C | 83% | 1012.5 hPa | 0.25 mm | 4.47 m/s, 66° | - | - |
| 1778042321 | 9.44° C | 83% | 1012.5 hPa | 0.25 mm | 5.36 m/s, 69° | - | - |
| 1778042261 | 9.44° C | 83% | 1012.5 hPa | 0.25 mm | 5.36 m/s, 62° | - | - |
| 1778042201 | 9.44° C | 83% | 1012.5 hPa | 0.25 mm | 5.81 m/s, 72° | - | - |
| 1778042141 | 9.44° C | 83% | 1012.5 hPa | 0.25 mm | 5.81 m/s, 70° | - | - |
| 1778042080 | 9.44° C | 83% | 1012.5 hPa | 0 mm | 4.47 m/s, 66° | - | - |
| 1778042020 | 9.44° C | 83% | 1012.5 hPa | 0 mm | 5.36 m/s, 70° | - | - |
| 1778041960 | 9.44° C | 83% | 1012.5 hPa | 0 mm | 4.47 m/s, 69° | - | - |
| 1778041900 | 9.44° C | 83% | 1012.5 hPa | 0 mm | 6.26 m/s, 68° | - | - |
| 1778041840 | 9.44° C | 83% | 1012.5 hPa | 0 mm | 6.26 m/s, 74° | - | - |
| 1778041780 | 9.44° C | 83% | 1012.4 hPa | 0 mm | 5.36 m/s, 70° | - | - |
| 1778041720 | 9.44° C | 82% | 1012.5 hPa | 0 mm | 4.47 m/s, 66° | - | - |
| 1778041660 | 9.44° C | 82% | 1012.5 hPa | 0 mm | 5.36 m/s, 65° | - | - |
| 1778041600 | 9.44° C | 82% | 1012.5 hPa | 0 mm | 6.26 m/s, 66° | - | - |
| 1778041540 | 9.44° C | 82% | 1012.5 hPa | 0 mm | 5.81 m/s, 65° | - | - |
| 1778041480 | 9.44° C | 82% | 1012.4 hPa | 0 mm | 5.81 m/s, 66° | - | - |
| 1778041420 | 9.44° C | 82% | 1012.5 hPa | 0 mm | 5.36 m/s, 66° | - | - |
* Rain latest hour (hover to see other rain measurements)
** Current wind speed in m/s (hover to see current wind gust speed)